This is the latest recevied weather packets stored in our database for station/object EA1GGY-1. If no packets are shown the sender has not sent any weather packets the latest 10 day(s).
| Time | Temp. | Humidity | Pressure | Rain* | Wind** | Luminosity | Snow |
|---|---|---|---|---|---|---|---|
| 1777846200 | 8.89° C | 79% | 1008.8 hPa | - | - | - | - |
| 1777845599 | 8.89° C | 79% | 1008.8 hPa | - | - | - | - |
| 1777844998 | 8.89° C | 79% | 1008.8 hPa | - | - | - | - |
| 1777844399 | 9.44° C | 78% | 1008.8 hPa | - | - | - | - |
| 1777843798 | 9.44° C | 76% | 1008.7 hPa | - | - | - | - |
| 1777843196 | 10° C | 75% | 1008.7 hPa | - | - | - | - |
| 1777842595 | 9.44° C | 75% | 1008.7 hPa | - | - | - | - |
| 1777841995 | 10° C | 76% | 1008.6 hPa | - | - | - | - |
| 1777841393 | 10° C | 74% | 1008.5 hPa | - | - | - | - |
| 1777840793 | 9.44° C | 73% | 1008.4 hPa | - | - | - | - |
| 1777840192 | 9.44° C | 78% | 1008.5 hPa | - | - | - | - |
| 1777839591 | 9.44° C | 79% | 1008.3 hPa | - | - | - | - |
| 1777838990 | 10° C | 77% | 1008.1 hPa | - | - | - | - |
| 1777838389 | 10.56° C | 76% | 1008 hPa | - | - | - | - |
| 1777837789 | 10.56° C | 77% | 1007.8 hPa | - | - | - | - |
| 1777837188 | 10° C | 80% | 1007.7 hPa | - | - | - | - |
| 1777836587 | 10.56° C | 80% | 1007.6 hPa | - | - | - | - |
| 1777835986 | 10.56° C | 79% | 1007.5 hPa | - | - | - | - |
| 1777835386 | 10.56° C | 79% | 1007.5 hPa | - | - | - | - |
| 1777834784 | 11.11° C | 78% | 1007.3 hPa | - | - | - | - |
| 1777834183 | 10.56° C | 78% | 1007.4 hPa | - | - | - | - |
| 1777833582 | 10.56° C | 77% | 1007.3 hPa | - | - | - | - |
| 1777832982 | 10° C | 77% | 1007.4 hPa | - | - | - | - |
| 1777832381 | 10.56° C | 78% | 1007.4 hPa | - | - | - | - |
| 1777831780 | 10.56° C | 79% | 1007.4 hPa | - | - | - | - |
* Rain since midnight (hover to see other rain measurements)
** Current wind speed in m/s (hover to see current wind gust speed)